Starlink 33848

operational
NORAD ID: 63705 Int'l Des: 2025-087 Owner: SPXS Country: US Constellation: starlink
LEOCIRCULAR

关于 Starlink 33848

正在加载描述...

实时位置

正在加载3D地球...

即将过境

高度历史

Altitude vs Time

uPlot chart will show altitude changes over time

两行轨道根数

1 63705U 25087J 25353.69110237 .00013408 00000-0 46400-3 0 9993
2 63705 53.1564 230.9865 0001691 43.0474 317.0659 15.30199880 36946
Epoch: Dec 19, 2025 • Age: 11 hours

当前状态

高度 480.9 km
速度 7.63 km/s
星下点 53.16°N, 164.78°E
发射日期 Apr 28, 2025
运行时间 0.6 years
类型 internet

技术详情

分类 Payload
质量 575.00 kg
干质量 530.00 kg
总质量 575.00 kg
长度 0.30 m
直径 4.10 m
跨度 29.00 m
形状 Box + pan
制造商 SPXS
平台类型 Starlink V2MO
阶段状态 In Orbit
所有者/国家 SPXS/US

大型星座

Loading constellations...